iso_date,Year,Hour,Min,DOY,POS_DOY,Lat,Lon,BP,Ts,Ta,has_bp,has_ts,has_ta,BuoyID,Buoy_Type,Buoy_Owner,Logistics,Hemisphere
2013-10-09T00:00:00Z,2013,0,0,282.0,282.0,77.029,-159.882,1011.1,-9.2,-9.7,yes,yes,yes,300234011542430,ISVP-BA,unknown,unknown,North
2013-10-09T01:00:28Z,2013,1,0,282.042,282.0,77.029,-159.882,1010.6,-8.9,-8.6,yes,yes,yes,300234011542430,ISVP-BA,unknown,unknown,North
2013-10-09T01:59:31Z,2013,2,0,282.083,282.0,77.029,-159.882,1009.9,-8.5,-7.7,yes,yes,yes,300234011542430,ISVP-BA,unknown,unknown,North
2013-10-09T03:00:00Z,2013,3,0,282.125,282.125,77.0346,-159.9118,1009.6,-8.1,-6.8,yes,yes,yes,300234011542430,ISVP-BA,unknown,unknown,North
2013-10-09T04:00:28Z,2013,4,0,282.167,282.125,77.0346,-159.9118,1008.9,-7.7,-7.2,yes,yes,yes,300234011542430,ISVP-BA,unknown,unknown,North
2013-10-09T04:59:31Z,2013,5,0,282.208,282.125,77.0346,-159.9118,1008.2,-7.3,-7.0,yes,yes,yes,300234011542430,ISVP-BA,unknown,unknown,North
2013-10-09T06:00:00Z,2013,6,0,282.25,282.25,77.0346,-159.9978,1007.8,-7.0,-6.9,yes,yes,yes,300234011542430,ISVP-BA,unknown,unknown,North
2013-10-09T07:00:28Z,2013,7,0,282.292,282.25,77.0346,-159.9978,1007.3,-6.7,-6.5,yes,yes,yes,300234011542430,ISVP-BA,unknown,unknown,North
2013-10-09T07:59:31Z,2013,8,0,282.333,282.25,77.0346,-159.9978,1006.9,-6.5,-6.1,yes,yes,yes,300234011542430,ISVP-BA,unknown,unknown,North
2013-10-09T09:00:00Z,2013,9,0,282.375,282.375,77.045,-160.1142,1006.4,-6.2,-5.8,yes,yes,yes,300234011542430,ISVP-BA,unknown,unknown,North
2013-10-09T10:00:28Z,2013,10,0,282.417,282.375,77.045,-160.1142,1006.1,-6.0,-5.7,yes,yes,yes,300234011542430,ISVP-BA,unknown,unknown,North
2013-10-09T10:59:31Z,2013,11,0,282.458,282.375,77.045,-160.1142,1005.7,-5.8,-5.9,yes,yes,yes,300234011542430,ISVP-BA,unknown,unknown,North
2013-10-09T12:00:00Z,2013,12,0,282.5,282.5,77.0614,-160.1744,1005.7,-5.6,-5.6,yes,yes,yes,300234011542430,ISVP-BA,unknown,unknown,North
2013-10-09T13:00:28Z,2013,13,0,282.542,282.5,77.0614,-160.1744,1005.4,-5.5,-5.4,yes,yes,yes,300234011542430,ISVP-BA,unknown,unknown,North
2013-10-09T13:59:31Z,2013,14,0,282.583,282.5,77.0614,-160.1744,1005.4,-5.3,-5.1,yes,yes,yes,300234011542430,ISVP-BA,unknown,unknown,North
2013-10-09T15:00:00Z,2013,15,0,282.625,282.625,77.0674,-160.218,1005.0,-5.2,-5.6,yes,yes,yes,300234011542430,ISVP-BA,unknown,unknown,North
2013-10-09T16:00:28Z,2013,16,0,282.667,282.625,77.0674,-160.218,1005.2,-5.1,-5.6,yes,yes,yes,300234011542430,ISVP-BA,unknown,unknown,North
2013-10-09T16:59:31Z,2013,17,0,282.708,282.625,77.0674,-160.218,1005.5,-5.0,-5.5,yes,yes,yes,300234011542430,ISVP-BA,unknown,unknown,North
2013-10-09T18:00:00Z,2013,18,0,282.75,282.75,77.0694,-160.3034,1005.6,-5.0,-5.6,yes,yes,yes,300234011542430,ISVP-BA,unknown,unknown,North
2013-10-09T19:00:28Z,2013,19,0,282.792,282.75,77.0694,-160.3034,1005.6,-4.9,-5.4,yes,yes,yes,300234011542430,ISVP-BA,unknown,unknown,North
2013-10-09T19:59:31Z,2013,20,0,282.833,282.75,77.0694,-160.3034,1005.7,-4.8,-4.9,yes,yes,yes,300234011542430,ISVP-BA,unknown,unknown,North
2013-10-09T21:00:00Z,2013,21,0,282.875,282.875,77.0774,-160.407,1005.9,-4.8,-4.0,yes,yes,yes,300234011542430,ISVP-BA,unknown,unknown,North
2013-10-09T22:00:28Z,2013,22,0,282.917,282.875,77.0774,-160.407,1005.9,-4.7,-3.5,yes,yes,yes,300234011542430,ISVP-BA,unknown,unknown,North
2013-10-09T22:59:31Z,2013,23,0,282.958,282.875,77.0774,-160.407,1005.9,-4.5,-3.3,yes,yes,yes,300234011542430,ISVP-BA,unknown,unknown,North
2013-10-10T00:00:00Z,2013,0,0,283.0,283.0,77.0912,-160.4754,1006.0,-4.3,-3.5,yes,yes,yes,300234011542430,ISVP-BA,unknown,unknown,North
2013-10-10T01:00:28Z,2013,1,0,283.042,283.0,77.0912,-160.4754,1006.2,-4.1,-3.7,yes,yes,yes,300234011542430,ISVP-BA,unknown,unknown,North
2013-10-10T01:59:31Z,2013,2,0,283.083,283.0,77.0912,-160.4754,1006.3,-4.0,-4.0,yes,yes,yes,300234011542430,ISVP-BA,unknown,unknown,North
2013-10-10T03:00:00Z,2013,3,0,283.125,283.125,77.1014,-160.5084,1006.4,-3.9,-5.4,yes,yes,yes,300234011542430,ISVP-BA,unknown,unknown,North
2013-10-10T04:00:28Z,2013,4,0,283.167,283.125,77.1014,-160.5084,1006.7,-4.0,-5.6,yes,yes,yes,300234011542430,ISVP-BA,unknown,unknown,North
2013-10-10T04:59:31Z,2013,5,0,283.208,283.125,77.1014,-160.5084,1007.1,-4.1,-5.7,yes,yes,yes,300234011542430,ISVP-BA,unknown,unknown,North
2013-10-10T06:00:00Z,2013,6,0,283.25,283.25,77.107,-160.5718,1006.9,-4.2,-8.5,yes,yes,yes,300234011542430,ISVP-BA,unknown,unknown,North
2013-10-10T07:00:28Z,2013,7,0,283.292,283.25,77.107,-160.5718,1007.5,-4.4,-7.4,yes,yes,yes,300234011542430,ISVP-BA,unknown,unknown,North
2013-10-10T07:59:31Z,2013,8,0,283.333,283.25,77.107,-160.5718,1008.2,-4.6,-6.9,yes,yes,yes,300234011542430,ISVP-BA,unknown,unknown,North
2013-10-10T09:00:00Z,2013,9,0,283.375,283.375,77.1178,-160.6554,1008.3,-4.7,-6.3,yes,yes,yes,300234011542430,ISVP-BA,unknown,unknown,North
2013-10-10T10:00:28Z,2013,10,0,283.417,283.375,77.1178,-160.6554,1008.4,-4.8,-5.9,yes,yes,yes,300234011542430,ISVP-BA,unknown,unknown,North
2013-10-10T10:59:31Z,2013,11,0,283.458,283.375,77.1178,-160.6554,1008.5,-4.7,-5.8,yes,yes,yes,300234011542430,ISVP-BA,unknown,unknown,North
2013-10-10T12:00:00Z,2013,12,0,283.5,283.5,77.1324,-160.7176,1008.6,-4.7,-5.7,yes,yes,yes,300234011542430,ISVP-BA,unknown,unknown,North
2013-10-10T13:00:28Z,2013,13,0,283.542,283.5,77.1324,-160.7176,1008.4,-4.6,-6.7,yes,yes,yes,300234011542430,ISVP-BA,unknown,unknown,North
2013-10-10T13:59:31Z,2013,14,0,283.583,283.5,77.1324,-160.7176,1008.6,-4.7,-7.1,yes,yes,yes,300234011542430,ISVP-BA,unknown,unknown,North
2013-10-10T15:00:00Z,2013,15,0,283.625,283.625,77.1394,-160.758,1008.2,-4.8,-9.6,yes,yes,yes,300234011542430,ISVP-BA,unknown,unknown,North
2013-10-10T16:00:28Z,2013,16,0,283.667,283.625,77.1394,-160.758,1008.4,-5.0,-10.3,yes,yes,yes,300234011542430,ISVP-BA,unknown,unknown,North
2013-10-10T16:59:31Z,2013,17,0,283.708,283.625,77.1394,-160.758,1009.1,-5.2,-8.7,yes,yes,yes,300234011542430,ISVP-BA,unknown,unknown,North
2013-10-10T18:00:00Z,2013,18,0,283.75,283.75,77.1398,-160.8144,1009.0,-5.3,-7.7,yes,yes,yes,300234011542430,ISVP-BA,unknown,unknown,North
2013-10-10T19:00:28Z,2013,19,0,283.792,283.75,77.1398,-160.8144,1008.9,-5.3,-6.8,yes,yes,yes,300234011542430,ISVP-BA,unknown,unknown,North
2013-10-10T19:59:31Z,2013,20,0,283.833,283.75,77.1398,-160.8144,1009.1,-5.3,-6.1,yes,yes,yes,300234011542430,ISVP-BA,unknown,unknown,North
2013-10-10T21:00:00Z,2013,21,0,283.875,283.875,77.1446,-160.9054,1009.3,-5.2,-5.3,yes,yes,yes,300234011542430,ISVP-BA,unknown,unknown,North
2013-10-10T22:00:28Z,2013,22,0,283.917,283.875,77.1446,-160.9054,1009.4,-5.0,-5.2,yes,yes,yes,300234011542430,ISVP-BA,unknown,unknown,North
2013-10-10T22:59:31Z,2013,23,0,283.958,283.875,77.1446,-160.9054,1009.4,-4.9,-5.5,yes,yes,yes,300234011542430,ISVP-BA,unknown,unknown,North
2013-10-11T00:00:00Z,2013,0,0,284.0,284.0,77.1574,-160.9596,1009.1,-4.7,-6.3,yes,yes,yes,300234011542430,ISVP-BA,unknown,unknown,North
2013-10-11T01:00:28Z,2013,1,0,284.042,284.0,77.1574,-160.9596,1009.2,-4.7,-6.4,yes,yes,yes,300234011542430,ISVP-BA,unknown,unknown,North
2013-10-11T01:59:31Z,2013,2,0,284.083,284.0,77.1574,-160.9596,1009.4,-4.7,-6.6,yes,yes,yes,300234011542430,ISVP-BA,unknown,unknown,North
2013-10-11T03:00:00Z,2013,3,0,284.125,284.125,77.1654,-160.992,1009.5,-4.7,-6.5,yes,yes,yes,300234011542430,ISVP-BA,unknown,unknown,North
2013-10-11T04:00:28Z,2013,4,0,284.167,284.125,77.1654,-160.992,1009.7,-4.7,-6.6,yes,yes,yes,300234011542430,ISVP-BA,unknown,unknown,North
2013-10-11T04:59:31Z,2013,5,0,284.208,284.125,77.1654,-160.992,1009.7,-4.7,-7.1,yes,yes,yes,300234011542430,ISVP-BA,unknown,unknown,North
2013-10-11T06:00:00Z,2013,6,0,284.25,284.25,77.1672,-161.0634,1009.9,-4.8,-7.5,yes,yes,yes,300234011542430,ISVP-BA,unknown,unknown,North
2013-10-11T07:00:28Z,2013,7,0,284.292,284.25,77.1672,-161.0634,1010.3,-4.9,-7.9,yes,yes,yes,300234011542430,ISVP-BA,unknown,unknown,North
2013-10-11T07:59:31Z,2013,8,0,284.333,284.25,77.1672,-161.0634,1010.6,-5.0,-7.6,yes,yes,yes,300234011542430,ISVP-BA,unknown,unknown,North
2013-10-11T09:00:00Z,2013,9,0,284.375,284.375,77.1718,-161.1636,1010.9,-5.1,-7.2,yes,yes,yes,300234011542430,ISVP-BA,unknown,unknown,North
2013-10-11T10:00:28Z,2013,10,0,284.417,284.375,77.1718,-161.1636,1011.1,-5.1,-7.0,yes,yes,yes,300234011542430,ISVP-BA,unknown,unknown,North
2013-10-11T10:59:31Z,2013,11,0,284.458,284.375,77.1718,-161.1636,1011.3,-5.1,-7.1,yes,yes,yes,300234011542430,ISVP-BA,unknown,unknown,North
2013-10-11T12:00:00Z,2013,12,0,284.5,284.5,77.1822,-161.2386,1011.3,-5.1,-7.4,yes,yes,yes,300234011542430,ISVP-BA,unknown,unknown,North
2013-10-11T13:00:28Z,2013,13,0,284.542,284.5,77.1822,-161.2386,1011.6,-5.1,-7.6,yes,yes,yes,300234011542430,ISVP-BA,unknown,unknown,North
2013-10-11T13:59:31Z,2013,14,0,284.583,284.5,77.1822,-161.2386,1011.8,-5.1,-7.7,yes,yes,yes,300234011542430,ISVP-BA,unknown,unknown,North
2013-10-11T15:00:00Z,2013,15,0,284.625,284.625,77.192,-161.288,1012.1,-5.1,-8.2,yes,yes,yes,300234011542430,ISVP-BA,unknown,unknown,North
2013-10-11T16:00:28Z,2013,16,0,284.667,284.625,77.192,-161.288,1012.2,-5.2,-9.2,yes,yes,yes,300234011542430,ISVP-BA,unknown,unknown,North
2013-10-11T16:59:31Z,2013,17,0,284.708,284.625,77.192,-161.288,1012.5,-5.4,-9.9,yes,yes,yes,300234011542430,ISVP-BA,unknown,unknown,North
2013-10-11T18:00:00Z,2013,18,0,284.75,284.75,77.1978,-161.356,1013.0,-5.5,-10.1,yes,yes,yes,300234011542430,ISVP-BA,unknown,unknown,North
2013-10-11T19:00:28Z,2013,19,0,284.792,284.75,77.1978,-161.356,1013.6,-5.7,-10.1,yes,yes,yes,300234011542430,ISVP-BA,unknown,unknown,North
2013-10-11T19:59:31Z,2013,20,0,284.833,284.75,77.1978,-161.356,1013.9,-5.9,-10.1,yes,yes,yes,300234011542430,ISVP-BA,unknown,unknown,North
2013-10-11T21:00:00Z,2013,21,0,284.875,284.875,77.2076,-161.4442,1014.4,-6.1,-9.7,yes,yes,yes,300234011542430,ISVP-BA,unknown,unknown,North
2013-10-11T22:00:28Z,2013,22,0,284.917,284.875,77.2076,-161.4442,1014.7,-6.1,-9.2,yes,yes,yes,300234011542430,ISVP-BA,unknown,unknown,North
2013-10-11T22:59:31Z,2013,23,0,284.958,284.875,77.2076,-161.4442,1014.8,-6.1,-9.5,yes,yes,yes,300234011542430,ISVP-BA,unknown,unknown,North
2013-10-12T00:00:00Z,2013,0,0,285.0,285.0,77.2218,-161.5104,1014.8,-6.1,-10.4,yes,yes,yes,300234011542430,ISVP-BA,unknown,unknown,North
2013-10-12T01:00:28Z,2013,1,0,285.042,285.0,77.2218,-161.5104,1015.2,-6.1,-9.9,yes,yes,yes,300234011542430,ISVP-BA,unknown,unknown,North
2013-10-12T01:59:31Z,2013,2,0,285.083,285.0,77.2218,-161.5104,1015.2,-6.2,-10.2,yes,yes,yes,300234011542430,ISVP-BA,unknown,unknown,North
2013-10-12T03:00:00Z,2013,3,0,285.125,285.125,77.2304,-161.544,1015.2,-6.3,-11.0,yes,yes,yes,300234011542430,ISVP-BA,unknown,unknown,North
2013-10-12T04:00:28Z,2013,4,0,285.167,285.125,77.2304,-161.544,1015.2,-6.4,-12.9,yes,yes,yes,300234011542430,ISVP-BA,unknown,unknown,North
2013-10-12T04:59:31Z,2013,5,0,285.208,285.125,77.2304,-161.544,1015.5,-6.6,-12.8,yes,yes,yes,300234011542430,ISVP-BA,unknown,unknown,North
2013-10-12T06:00:00Z,2013,6,0,285.25,285.25,77.231,-161.5858,1015.7,-6.8,-12.3,yes,yes,yes,300234011542430,ISVP-BA,unknown,unknown,North
2013-10-12T07:00:28Z,2013,7,0,285.292,285.25,77.231,-161.5858,1015.4,-7.0,-13.7,yes,yes,yes,300234011542430,ISVP-BA,unknown,unknown,North
2013-10-12T07:59:31Z,2013,8,0,285.333,285.25,77.231,-161.5858,1015.4,-7.4,-15.2,yes,yes,yes,300234011542430,ISVP-BA,unknown,unknown,North
2013-10-12T09:00:00Z,2013,9,0,285.375,285.375,77.2334,-161.6616,1015.3,-7.9,-16.5,yes,yes,yes,300234011542430,ISVP-BA,unknown,unknown,North
2013-10-12T10:00:28Z,2013,10,0,285.417,285.375,77.2334,-161.6616,1015.3,-8.5,-17.2,yes,yes,yes,300234011542430,ISVP-BA,unknown,unknown,North
2013-10-12T10:59:31Z,2013,11,0,285.458,285.375,77.2334,-161.6616,1015.4,-9.0,-17.6,yes,yes,yes,300234011542430,ISVP-BA,unknown,unknown,North
2013-10-12T12:00:00Z,2013,12,0,285.5,285.5,77.2414,-161.7288,1015.4,-9.4,-17.4,yes,yes,yes,300234011542430,ISVP-BA,unknown,unknown,North
2013-10-12T13:00:28Z,2013,13,0,285.542,285.5,77.2414,-161.7288,1015.0,-10.0,-17.9,yes,yes,yes,300234011542430,ISVP-BA,unknown,unknown,North
2013-10-12T13:59:31Z,2013,14,0,285.583,285.5,77.2414,-161.7288,1015.2,-10.5,-16.4,yes,yes,yes,300234011542430,ISVP-BA,unknown,unknown,North
2013-10-12T15:00:00Z,2013,15,0,285.625,285.625,77.2466,-161.7844,1015.0,-10.7,-15.5,yes,yes,yes,300234011542430,ISVP-BA,unknown,unknown,North
2013-10-12T16:00:28Z,2013,16,0,285.667,285.625,77.2466,-161.7844,1014.7,-10.7,-15.0,yes,yes,yes,300234011542430,ISVP-BA,unknown,unknown,North
2013-10-12T16:59:31Z,2013,17,0,285.708,285.625,77.2466,-161.7844,1014.3,-10.5,-14.4,yes,yes,yes,300234011542430,ISVP-BA,unknown,unknown,North
2013-10-12T18:00:00Z,2013,18,0,285.75,285.75,77.2478,-161.8654,1013.8,-10.3,-13.9,yes,yes,yes,300234011542430,ISVP-BA,unknown,unknown,North
2013-10-12T19:00:28Z,2013,19,0,285.792,285.75,77.2478,-161.8654,1013.9,-10.0,-13.5,yes,yes,yes,300234011542430,ISVP-BA,unknown,unknown,North
2013-10-12T19:59:31Z,2013,20,0,285.833,285.75,77.2478,-161.8654,1014.0,-9.6,-13.0,yes,yes,yes,300234011542430,ISVP-BA,unknown,unknown,North
2013-10-12T21:00:00Z,2013,21,0,285.875,285.875,77.2538,-161.9618,1013.9,-9.2,-12.5,yes,yes,yes,300234011542430,ISVP-BA,unknown,unknown,North
2013-10-12T22:00:28Z,2013,22,0,285.917,285.875,77.2538,-161.9618,1013.8,-8.9,-12.4,yes,yes,yes,300234011542430,ISVP-BA,unknown,unknown,North
2013-10-12T22:59:31Z,2013,23,0,285.958,285.875,77.2538,-161.9618,1013.7,-8.7,-12.7,yes,yes,yes,300234011542430,ISVP-BA,unknown,unknown,North
2013-10-13T00:00:00Z,2013,0,0,286.0,286.0,77.2674,-162.033,1013.9,-8.6,-12.1,yes,yes,yes,300234011542430,ISVP-BA,unknown,unknown,North
2013-10-13T01:00:28Z,2013,1,0,286.042,286.0,77.2674,-162.033,1013.8,-8.5,-11.6,yes,yes,yes,300234011542430,ISVP-BA,unknown,unknown,North
2013-10-13T01:59:31Z,2013,2,0,286.083,286.0,77.2674,-162.033,1013.8,-8.3,-11.4,yes,yes,yes,300234011542430,ISVP-BA,unknown,unknown,North
2013-10-13T03:00:00Z,2013,3,0,286.125,286.125,77.2784,-162.0772,1013.7,-8.1,-11.6,yes,yes,yes,300234011542430,ISVP-BA,unknown,unknown,North
2013-10-13T04:00:28Z,2013,4,0,286.167,286.125,77.2784,-162.0772,1013.7,-8.0,-11.2,yes,yes,yes,300234011542430,ISVP-BA,unknown,unknown,North
2013-10-13T04:59:31Z,2013,5,0,286.208,286.125,77.2784,-162.0772,1013.5,-7.9,-10.9,yes,yes,yes,300234011542430,ISVP-BA,unknown,unknown,North
2013-10-13T06:00:00Z,2013,6,0,286.25,286.25,77.2828,-162.1408,1013.1,-7.8,-11.4,yes,yes,yes,300234011542430,ISVP-BA,unknown,unknown,North
2013-10-13T07:00:28Z,2013,7,0,286.292,286.25,77.2828,-162.1408,1012.9,-7.7,-11.6,yes,yes,yes,300234011542430,ISVP-BA,unknown,unknown,North
2013-10-13T07:59:31Z,2013,8,0,286.333,286.25,77.2828,-162.1408,1012.8,-7.8,-11.5,yes,yes,yes,300234011542430,ISVP-BA,unknown,unknown,North
2013-10-13T09:00:00Z,2013,9,0,286.375,286.375,77.286,-162.2434,1012.7,-7.8,-11.2,yes,yes,yes,300234011542430,ISVP-BA,unknown,unknown,North
2013-10-13T10:00:28Z,2013,10,0,286.417,286.375,77.286,-162.2434,1012.4,-7.8,-10.9,yes,yes,yes,300234011542430,ISVP-BA,unknown,unknown,North
2013-10-13T10:59:31Z,2013,11,0,286.458,286.375,77.286,-162.2434,1011.8,-7.8,-10.8,yes,yes,yes,300234011542430,ISVP-BA,unknown,unknown,North
2013-10-13T12:00:00Z,2013,12,0,286.5,286.5,77.2946,-162.3542,1011.2,-7.7,-10.6,yes,yes,yes,300234011542430,ISVP-BA,unknown,unknown,North
2013-10-13T13:00:28Z,2013,13,0,286.542,286.5,77.2946,-162.3542,1011.0,-7.7,-10.6,yes,yes,yes,300234011542430,ISVP-BA,unknown,unknown,North
2013-10-13T13:59:31Z,2013,14,0,286.583,286.5,77.2946,-162.3542,1010.7,-7.6,-10.6,yes,yes,yes,300234011542430,ISVP-BA,unknown,unknown,North
2013-10-13T15:00:00Z,2013,15,0,286.625,286.625,77.3022,-162.429,1010.4,-7.5,-10.5,yes,yes,yes,300234011542430,ISVP-BA,unknown,unknown,North
2013-10-13T16:00:28Z,2013,16,0,286.667,286.625,77.3022,-162.429,1010.0,-7.3,-10.1,yes,yes,yes,300234011542430,ISVP-BA,unknown,unknown,North
2013-10-13T16:59:31Z,2013,17,0,286.708,286.625,77.3022,-162.429,1009.7,-7.2,-9.3,yes,yes,yes,300234011542430,ISVP-BA,unknown,unknown,North
2013-10-13T18:00:00Z,2013,18,0,286.75,286.75,77.3042,-162.4854,1009.4,-7.1,-8.6,yes,yes,yes,300234011542430,ISVP-BA,unknown,unknown,North
2013-10-13T19:00:28Z,2013,19,0,286.792,286.75,77.3042,-162.4854,1008.9,-6.9,-7.7,yes,yes,yes,300234011542430,ISVP-BA,unknown,unknown,North
2013-10-13T19:59:31Z,2013,20,0,286.833,286.75,77.3042,-162.4854,1008.6,-6.6,-6.7,yes,yes,yes,300234011542430,ISVP-BA,unknown,unknown,North
2013-10-13T21:00:00Z,2013,21,0,286.875,286.875,77.3054,-162.534,1008.2,-6.4,-6.0,yes,yes,yes,300234011542430,ISVP-BA,unknown,unknown,North
2013-10-13T22:00:28Z,2013,22,0,286.917,286.875,77.3054,-162.534,1008.0,-6.2,-5.4,yes,yes,yes,300234011542430,ISVP-BA,unknown,unknown,North
2013-10-13T22:59:31Z,2013,23,0,286.958,286.875,77.3054,-162.534,1007.8,-5.9,-5.0,yes,yes,yes,300234011542430,ISVP-BA,unknown,unknown,North
2013-10-14T00:00:00Z,2013,0,0,287.0,287.0,77.3108,-162.532,1007.4,-5.7,-5.9,yes,yes,yes,300234011542430,ISVP-BA,unknown,unknown,North
2013-10-14T01:00:28Z,2013,1,0,287.042,287.0,77.3108,-162.532,1007.3,-5.5,-6.5,yes,yes,yes,300234011542430,ISVP-BA,unknown,unknown,North
2013-10-14T01:59:31Z,2013,2,0,287.083,287.0,77.3108,-162.532,1007.4,-5.4,-7.3,yes,yes,yes,300234011542430,ISVP-BA,unknown,unknown,North
2013-10-14T03:00:00Z,2013,3,0,287.125,287.125,77.3158,-162.463,1007.6,-5.3,-8.0,yes,yes,yes,300234011542430,ISVP-BA,unknown,unknown,North
2013-10-14T04:00:28Z,2013,4,0,287.167,287.125,77.3158,-162.463,1008.0,-5.3,-8.5,yes,yes,yes,300234011542430,ISVP-BA,unknown,unknown,North
2013-10-14T04:59:31Z,2013,5,0,287.208,287.125,77.3158,-162.463,1008.6,-5.3,-9.1,yes,yes,yes,300234011542430,ISVP-BA,unknown,unknown,North
2013-10-14T06:00:00Z,2013,6,0,287.25,287.25,77.3142,-162.3862,1009.0,-5.3,-9.8,yes,yes,yes,300234011542430,ISVP-BA,unknown,unknown,North
2013-10-14T07:00:28Z,2013,7,0,287.292,287.25,77.3142,-162.3862,1009.2,-5.4,-10.8,yes,yes,yes,300234011542430,ISVP-BA,unknown,unknown,North
2013-10-14T07:59:31Z,2013,8,0,287.333,287.25,77.3142,-162.3862,1009.3,-5.6,-13.1,yes,yes,yes,300234011542430,ISVP-BA,unknown,unknown,North
2013-10-14T09:00:00Z,2013,9,0,287.375,287.375,77.3114,-162.3372,1009.4,-5.9,-16.3,yes,yes,yes,300234011542430,ISVP-BA,unknown,unknown,North
2013-10-14T10:00:28Z,2013,10,0,287.417,287.375,77.3114,-162.3372,1010.3,-6.4,-18.2,yes,yes,yes,300234011542430,ISVP-BA,unknown,unknown,North
2013-10-14T10:59:31Z,2013,11,0,287.458,287.375,77.3114,-162.3372,1010.7,-7.0,-19.2,yes,yes,yes,300234011542430,ISVP-BA,unknown,unknown,North
2013-10-14T12:00:00Z,2013,12,0,287.5,287.5,77.3128,-162.3144,1011.0,-7.6,-20.4,yes,yes,yes,300234011542430,ISVP-BA,unknown,unknown,North
2013-10-14T13:00:28Z,2013,13,0,287.542,287.5,77.3128,-162.3144,1011.4,-8.2,-20.9,yes,yes,yes,300234011542430,ISVP-BA,unknown,unknown,North
2013-10-14T13:59:31Z,2013,14,0,287.583,287.5,77.3128,-162.3144,1011.6,-8.7,-21.5,yes,yes,yes,300234011542430,ISVP-BA,unknown,unknown,North
2013-10-14T15:00:00Z,2013,15,0,287.625,287.625,77.3136,-162.286,1012.0,-9.2,-20.6,yes,yes,yes,300234011542430,ISVP-BA,unknown,unknown,North
2013-10-14T16:00:28Z,2013,16,0,287.667,287.625,77.3136,-162.286,1011.8,-9.6,-20.6,yes,yes,yes,300234011542430,ISVP-BA,unknown,unknown,North
2013-10-14T16:59:31Z,2013,17,0,287.708,287.625,77.3136,-162.286,1012.4,-9.9,-20.2,yes,yes,yes,300234011542430,ISVP-BA,unknown,unknown,North
2013-10-14T18:00:00Z,2013,18,0,287.75,287.75,77.3094,-162.2728,1012.7,-10.2,-20.5,yes,yes,yes,300234011542430,ISVP-BA,unknown,unknown,North
2013-10-14T19:00:28Z,2013,19,0,287.792,287.75,77.3094,-162.2728,1012.4,-10.4,-20.3,yes,yes,yes,300234011542430,ISVP-BA,unknown,unknown,North
2013-10-14T19:59:31Z,2013,20,0,287.833,287.75,77.3094,-162.2728,1012.6,-10.8,-19.2,yes,yes,yes,300234011542430,ISVP-BA,unknown,unknown,North
2013-10-14T21:00:00Z,2013,21,0,287.875,287.875,77.3016,-162.2906,1012.4,-11.2,-19.0,yes,yes,yes,300234011542430,ISVP-BA,unknown,unknown,North
2013-10-14T22:00:28Z,2013,22,0,287.917,287.875,77.3016,-162.2906,1012.5,-11.5,-18.9,yes,yes,yes,300234011542430,ISVP-BA,unknown,unknown,North
2013-10-14T22:59:31Z,2013,23,0,287.958,287.875,77.3016,-162.2906,1012.4,-11.4,-18.8,yes,yes,yes,300234011542430,ISVP-BA,unknown,unknown,North
2013-10-15T00:00:00Z,2013,0,0,288.0,288.0,77.2952,-162.327,1012.4,-11.6,-17.6,yes,yes,yes,300234011542430,ISVP-BA,unknown,unknown,North
2013-10-15T01:00:28Z,2013,1,0,288.042,288.0,77.2952,-162.327,1012.2,-12.0,-16.8,yes,yes,yes,300234011542430,ISVP-BA,unknown,unknown,North
2013-10-15T01:59:31Z,2013,2,0,288.083,288.0,77.2952,-162.327,1012.5,-12.1,-15.6,yes,yes,yes,300234011542430,ISVP-BA,unknown,unknown,North
2013-10-15T03:00:00Z,2013,3,0,288.125,288.125,77.2888,-162.363,1012.5,-12.0,-14.6,yes,yes,yes,300234011542430,ISVP-BA,unknown,unknown,North
2013-10-15T04:00:28Z,2013,4,0,288.167,288.125,77.2888,-162.363,1012.2,-11.9,-13.9,yes,yes,yes,300234011542430,ISVP-BA,unknown,unknown,North
2013-10-15T04:59:31Z,2013,5,0,288.208,288.125,77.2888,-162.363,1011.9,-11.8,-13.3,yes,yes,yes,300234011542430,ISVP-BA,unknown,unknown,North
2013-10-15T06:00:00Z,2013,6,0,288.25,288.25,77.2772,-162.3974,1011.9,-11.6,-12.8,yes,yes,yes,300234011542430,ISVP-BA,unknown,unknown,North
2013-10-15T07:00:28Z,2013,7,0,288.292,288.25,77.2772,-162.3974,1011.9,-11.4,-12.7,yes,yes,yes,300234011542430,ISVP-BA,unknown,unknown,North
2013-10-15T07:59:31Z,2013,8,0,288.333,288.25,77.2772,-162.3974,1012.0,-11.1,-12.3,yes,yes,yes,300234011542430,ISVP-BA,unknown,unknown,North
2013-10-15T09:00:00Z,2013,9,0,288.375,288.375,77.2636,-162.454,1012.1,-10.8,-11.5,yes,yes,yes,300234011542430,ISVP-BA,unknown,unknown,North
2013-10-15T10:00:28Z,2013,10,0,288.417,288.375,77.2636,-162.454,1012.0,-10.5,-11.4,yes,yes,yes,300234011542430,ISVP-BA,unknown,unknown,North
2013-10-15T10:59:31Z,2013,11,0,288.458,288.375,77.2636,-162.454,1011.9,-10.1,-11.3,yes,yes,yes,300234011542430,ISVP-BA,unknown,unknown,North
2013-10-15T12:00:00Z,2013,12,0,288.5,288.5,77.2548,-162.5134,1011.9,-9.8,-10.9,yes,yes,yes,300234011542430,ISVP-BA,unknown,unknown,North
2013-10-15T13:00:28Z,2013,13,0,288.542,288.5,77.2548,-162.5134,1011.8,-9.6,-10.4,yes,yes,yes,300234011542430,ISVP-BA,unknown,unknown,North
2013-10-15T13:59:31Z,2013,14,0,288.583,288.5,77.2548,-162.5134,1011.8,-9.4,-10.3,yes,yes,yes,300234011542430,ISVP-BA,unknown,unknown,North
2013-10-15T15:00:00Z,2013,15,0,288.625,288.625,77.2474,-162.5558,1011.8,-9.2,-10.1,yes,yes,yes,300234011542430,ISVP-BA,unknown,unknown,North
2013-10-15T16:00:28Z,2013,16,0,288.667,288.625,77.2474,-162.5558,1011.8,-9.1,-10.0,yes,yes,yes,300234011542430,ISVP-BA,unknown,unknown,North
2013-10-15T16:59:31Z,2013,17,0,288.708,288.625,77.2474,-162.5558,1011.8,-8.9,-10.0,yes,yes,yes,300234011542430,ISVP-BA,unknown,unknown,North
2013-10-15T18:00:00Z,2013,18,0,288.75,288.75,77.2362,-162.5958,1011.8,-8.7,-10.0,yes,yes,yes,300234011542430,ISVP-BA,unknown,unknown,North
2013-10-15T19:00:28Z,2013,19,0,288.792,288.75,77.2362,-162.5958,1011.5,-8.5,-10.0,yes,yes,yes,300234011542430,ISVP-BA,unknown,unknown,North
2013-10-15T19:59:31Z,2013,20,0,288.833,288.75,77.2362,-162.5958,1011.1,-8.4,-11.3,yes,yes,yes,300234011542430,ISVP-BA,unknown,unknown,North
2013-10-15T21:00:00Z,2013,21,0,288.875,288.875,77.2232,-162.6484,1011.4,-8.4,-11.3,yes,yes,yes,300234011542430,ISVP-BA,unknown,unknown,North
2013-10-15T22:00:28Z,2013,22,0,288.917,288.875,77.2232,-162.6484,1011.7,-8.6,-10.6,yes,yes,yes,300234011542430,ISVP-BA,unknown,unknown,North
2013-10-15T22:59:31Z,2013,23,0,288.958,288.875,77.2232,-162.6484,1011.8,-8.8,-11.2,yes,yes,yes,300234011542430,ISVP-BA,unknown,unknown,North
2013-10-16T00:00:00Z,2013,0,0,289.0,289.0,77.212,-162.705,1011.7,-8.8,-10.7,yes,yes,yes,300234011542430,ISVP-BA,unknown,unknown,North
2013-10-16T01:00:28Z,2013,1,0,289.042,289.0,77.212,-162.705,1011.5,-9.0,-11.0,yes,yes,yes,300234011542430,ISVP-BA,unknown,unknown,North
2013-10-16T01:59:31Z,2013,2,0,289.083,289.0,77.212,-162.705,1011.4,-9.0,-11.4,yes,yes,yes,300234011542430,ISVP-BA,unknown,unknown,North
2013-10-16T03:00:00Z,2013,3,0,289.125,289.125,77.2008,-162.7448,1011.2,-9.0,-11.6,yes,yes,yes,300234011542430,ISVP-BA,unknown,unknown,North